Bettles, AK

12:18 AM AKST on February 18, 2018 (GMT -0900)
Bettles

Weather History for PABT - December, 2012

Change the Weather History Date:

Saturday, December 29, 2012

  Actual Average Record
Temperature  
Mean Temperature -2 °F -  
Max Temperature 7 °F 2 °F 32 °F (1982)
Min Temperature -11 °F -13 °F -56 °F (1955)
Degree Days  
Heating Degree Days 67    
Moisture  
Dew Point -1 °F    
Average Humidity 81    
Maximum Humidity 92    
Minimum Humidity 63    
Precipitation  
Precipitation 0.02 in - - ()
Snow  
Snow 0.00 in - - ()
Snow Depth 4.00 in    
Sea Level Pressure  
Sea Level Pressure 29.61 in    
Wind  
Wind Speed 3 mph (North)    
Max Wind Speed 7 mph    
Max Gust Speed -    
Visibility 6 miles    
Events Snow    
Averages and records for this station are not official NWS values.
T = Trace of Precipitation, MM = Missing Value Source: NWS Daily Summary

Daily Weather History Graph

Daily Weather History Graph

Search for Another Location

Airport or City:

Trip Planner

Search our weather history database for the weather conditions in past years. The results will help you decide how hot, cold, wet, or windy it might be!

Date:

Astronomy

Dec. 29, 2012 Rise Set
Actual Time 12:06 PM AKST 2:10 PM AKST
Civil Twilight 10:10 AM AKST 4:06 PM AKST
Nautical Twilight 8:49 AM AKST 5:27 PM AKST
Astronomical Twilight 7:42 AM AKST 6:35 PM AKST
Moon 5:32 PM AKST (12/29) 11:13 AM AKST (12/29)
Length of Visible Light 5h 55m
Length of Day
2h 04m
Full, 98% of the Moon is Illuminated
Dec 29
Full
Jan 4
Last Quarter
Jan 11
New
Jan 18
First Quarter
Jan 26
Full

Hourly Weather History & Observations

Time (AKST) Temp. Windchill Dew Point Humidity Pressure Visibility Wind Dir Wind Speed Gust Speed Precip Events Conditions
12:53 AM -2.9 °F -15.0 °F -8.0 °F 79% 29.75 in 10.0 mi NNE 5.8 mph - N/A   Partly Cloudy
1:53 AM -5.1 °F - -9.9 °F 80% 29.75 in 10.0 mi Calm Calm - N/A   Partly Cloudy
3:53 AM -6.0 °F -16.9 °F -11.0 °F 79% 29.71 in 10.0 mi North 4.6 mph - N/A   Clear
4:53 AM -6.0 °F - -11.0 °F 79% 29.68 in 10.0 mi Calm Calm - N/A   Clear
5:53 AM -7.1 °F -18.1 °F -13.0 °F 75% 29.65 in 10.0 mi NNE 4.6 mph - N/A   Partly Cloudy
6:53 AM -4.0 °F -14.6 °F -9.0 °F 79% 29.60 in 10.0 mi North 4.6 mph - N/A   Partly Cloudy
7:53 AM -2.0 °F -12.2 °F -8.0 °F 76% 29.58 in 10.0 mi North 4.6 mph - N/A   Scattered Clouds
8:53 AM -0.0 °F - -5.1 °F 79% 29.60 in 10.0 mi Calm Calm - N/A   Overcast
9:53 AM 1.0 °F - -4.0 °F 79% 29.59 in 10.0 mi Calm Calm - N/A   Overcast
10:53 AM 3.0 °F -8.0 °F -2.0 °F 80% 29.57 in 10.0 mi North 5.8 mph - N/A   Overcast
11:53 AM 5.0 °F -5.6 °F -0.9 °F 76% 29.57 in 10.0 mi North 5.8 mph - N/A   Overcast
12:31 PM 5.0 °F - -0.4 °F 78% 29.52 in 2.5 mi Calm Calm - N/A Snow Light Snow
12:53 PM 5.0 °F - -0.0 °F 80% 29.60 in 2.5 mi Calm Calm - N/A Snow Light Snow
1:53 PM 5.0 °F - 1.0 °F 84% 29.60 in 2.5 mi Calm Calm - N/A Snow Light Snow
2:53 PM 6.1 °F - 1.9 °F 83% 29.61 in 2.0 mi Calm Calm - N/A Snow Light Snow
3:09 PM 6.8 °F - 1.4 °F 79% 29.54 in 3.0 mi Calm Calm - N/A Snow Light Snow
3:23 PM 6.8 °F -3.5 °F 1.4 °F 79% 29.53 in 2.0 mi NNE 5.8 mph - N/A Snow Light Snow
3:31 PM 6.8 °F -2.0 °F 1.4 °F 79% 29.52 in 1.5 mi North 4.6 mph - N/A Snow Light Snow
3:51 PM 6.8 °F -0.1 °F 1.4 °F 79% 29.52 in 2.5 mi North 3.5 mph - N/A Snow Light Snow
3:53 PM 6.1 °F -2.8 °F 1.9 °F 83% 29.59 in 2.5 mi North 4.6 mph - N/A Snow Light Snow
4:00 PM 6.8 °F - 1.4 °F 79% 29.52 in 4.0 mi Calm Calm - N/A Snow Light Snow
4:53 PM 6.1 °F -4.3 °F 1.9 °F 83% 29.62 in 6.0 mi NNW 5.8 mph - N/A Snow Light Snow
5:53 PM 6.1 °F -0.9 °F 1.9 °F 83% 29.63 in 10.0 mi North 3.5 mph - N/A Snow Light Snow
6:33 PM 6.8 °F - 3.2 °F 85% 29.59 in 2.0 mi Calm Calm - N/A Snow Light Snow
6:40 PM 6.8 °F - 3.2 °F 85% 29.59 in 1.5 mi Calm Calm - N/A Snow Light Snow
6:53 PM 6.1 °F - 3.0 °F 87% 29.67 in 1.5 mi Calm Calm - N/A Snow Light Snow
7:05 PM 6.8 °F -2.0 °F 3.2 °F 85% 29.59 in 2.0 mi North 4.6 mph - N/A Snow Light Snow
7:24 PM 6.8 °F -2.0 °F 3.2 °F 85% 29.59 in 5.0 mi North 4.6 mph - N/A Snow Light Snow
7:53 PM 6.1 °F -4.3 °F 1.9 °F 83% 29.66 in 2.5 mi North 5.8 mph - N/A Snow Light Snow
8:15 PM 6.8 °F -2.0 °F 1.4 °F 79% 29.57 in 2.0 mi North 4.6 mph - N/A Snow Light Snow
8:31 PM 5.0 °F -5.6 °F 1.4 °F 85% 29.57 in 6.0 mi NNW 5.8 mph - N/A Snow Light Snow
8:42 PM 3.2 °F -6.2 °F 1.4 °F 92% 29.57 in 10.0 mi NW 4.6 mph - N/A Snow Light Snow
8:53 PM 3.9 °F -8.2 °F 1.0 °F 88% 29.64 in 10.0 mi NW 6.9 mph - N/A Snow Light Snow
9:53 PM 3.0 °F -6.4 °F -0.0 °F 87% 29.65 in 10.0 mi North 4.6 mph - N/A   Mostly Cloudy
10:53 PM 1.9 °F -5.6 °F -2.0 °F 83% 29.65 in 10.0 mi North 3.5 mph - N/A   Mostly Cloudy
11:53 PM 3.0 °F -8.0 °F -0.9 °F 84% 29.64 in 10.0 mi North 5.8 mph - N/A   Mostly Cloudy